User: anonymous   Login
Location: Unspecified
(0.0000°N, 0.0000°E)
Time: 22:16:53
(UTC+00:00)
Language:

OBJECT AC - Orbit

View from above orbital plane
View from above orbital plane
View from above satellite
View from above satellite

Ground track
Ground track

The orbit is defined by the following mean orbital elements,

1 66692U          26145.62684043 +.00000000 +00000-0 +24493-3 0 00008
2 66692  97.4213 219.5572 0004733  95.4653 264.7121 15.19437966    01
Epoch (UTC): 25 May 2026 15:02:39
Eccentricity: 0.0004733
inclination: 97.4213°
perigee height: 504 km
apogee height: 511 km
right ascension of ascending node: 219.5572°
argument of perigee: 95.4653°
revolutions per day: 15.19437966
mean anomaly at epoch: 264.7121°

The dashed part of the orbit path shows where the satellite is in the earth's shadow,  

DLR